Location: Unspecified
(52.4292°N, 19.3359°E)
Time: 00:17:14
(UTC+02:00)

SR - Pass Details

Date: 31 May 2024
Orbit: 580 x 858 km, 66.7° (Epoch: 12 June)

Event Time Altitude Azimuth Distance (km) Brightness Sun altitude
Rises 23:17:28 0° 321° (NW) 2,907 ? -13.3°
Reaches altitude 10° 23:19:57 10° 331° (NNW) 1,966 ? -13.4°
Maximum altitude 23:24:00 36° 38° (NE) 949 ? -13.6°
Drops below altitude 10° 23:27:56 10° 106° (ESE) 1,899 ? -13.8°
Enters shadow 23:28:23 - 109° (ESE) 2,066 ? -13.8°
Sets 23:30:16 0° 115° (ESE) 2,794 - -13.9°
